User: anonymous   Login
Location: Chakepay
(13.3931°S, 72.1925°W)
Time: 22:31:01
(UTC+00:00)
Language:

CZ-4B R/B - Orbit

View from above orbital plane
View from above orbital plane
View from above satellite
View from above satellite

Ground track
Ground track

The orbit data is extracted from the following two-line orbital elements,

1 29093U 06015B   20023.56258255 +.00002906 +00000-0 +59581-4 0  9999
2 29093 097.6019 182.9809 0056226 128.3071 232.3252 15.45273234763952
Epoch (UTC): 23 January 2020 13:30:07
Eccentricity: 0.0056226
inclination: 97.6019°
perigee height: 392 km
apogee height: 469 km
right ascension of ascending node: 182.9809°
argument of perigee: 128.3071°
revolutions per day: 15.45273234
mean anomaly at epoch: 232.3252°
orbit number at epoch: 76395

The dashed part of the orbit path shows where the satellite is in the earth's shadow,  

DLR